Kodiak, AK

12:44 PM AKDT on March 24, 2017 (GMT -0800)
Kodiak

Weather History for PADQ - October, 2012

Change the Weather History Date:

Wednesday, October 24, 2012

  Actual Average Record
Temperature  
Mean Temperature 37 °F 38 °F  
Max Temperature 43 °F 44 °F 56 °F (1918)
Min Temperature 30 °F 33 °F 17 °F (1935)
Degree Days  
Heating Degree Days 28 27  
Month to date heating degree days 576 567  
Since 1 July heating degree days 1806 1668  
Cooling Degree Days 0 0  
Month to date cooling degree days 0 0  
Year to date cooling degree days 0 1  
Moisture  
Dew Point 25 °F    
Average Humidity 0    
Maximum Humidity 0    
Minimum Humidity 0    
Precipitation  
Precipitation T in 0.25 in 1.61 in (2002)
Month to date precipitation 4.55 6.50  
Year to date precipitation 47.60 60.64  
Snow  
Snow T in 0.00 in 1.00 in (1965)
Month to date snowfall 0.2 0.6  
Since 1 July snowfall 0.2 0.6  
Since 1 September snowfall 0.2 0.6  
Snow Depth 0.00 in    
Sea Level Pressure  
Sea Level Pressure 30.27 in    
Wind  
Wind Speed 6 mph (WNW)    
Max Wind Speed 10 mph    
Max Gust Speed 18 mph    
Visibility 10 miles    
Events      
T = Trace of Precipitation, MM = Missing Value Source: NWS Daily Summary

Daily Weather History Graph

Daily Weather History Graph

Search for Another Location

Airport or City:

Trip Planner

Search our weather history database for the weather conditions in past years. The results will help you decide how hot, cold, wet, or windy it might be!

Date:

Astronomy

Oct. 24, 2012 Rise Set
Actual Time 9:06 AM AKDT 6:40 PM AKDT
Civil Twilight 8:25 AM AKDT 7:21 PM AKDT
Nautical Twilight 7:40 AM AKDT 8:06 PM AKDT
Astronomical Twilight 6:55 AM AKDT 8:51 PM AKDT
Moon 4:50 PM AKDT 3:15 AM AKDT
Length of Visible Light 10h 55m
Length of Day
9h 34m
Waxing Gibbous, 77% of the Moon is Illuminated
Oct 24
Waxing Gibbous
Oct 29
Full
Nov 6
Last Quarter
Nov 13
New
Nov 20
First Quarter

Hourly Weather History & Observations

Time (AKDT) Temp. Windchill Dew Point Humidity Pressure Visibility Wind Dir Wind Speed Gust Speed Precip Events Conditions
12:53 AM 36.0 °F 29.0 °F 25.0 °F 64% 30.24 in 10.0 mi WNW 9.2 mph - N/A   Mostly Cloudy
1:53 AM 37.0 °F 31.0 °F 26.1 °F 65% 30.24 in 10.0 mi WNW 8.1 mph - N/A   Overcast
2:53 AM 37.0 °F 30.4 °F 25.0 °F 62% 30.25 in 10.0 mi WNW 9.2 mph - N/A   Overcast
3:53 AM 36.0 °F 29.6 °F 25.0 °F 64% 30.24 in 10.0 mi NW 8.1 mph - N/A   Overcast
4:53 AM 36.0 °F 29.6 °F 25.0 °F 64% 30.25 in 10.0 mi NW 8.1 mph - N/A   Overcast
5:53 AM 36.0 °F 30.3 °F 25.0 °F 64% 30.25 in 10.0 mi NW 6.9 mph - N/A   Overcast
6:53 AM 36.0 °F 31.1 °F 25.0 °F 64% 30.25 in 10.0 mi NW 5.8 mph - N/A   Overcast
7:53 AM 36.0 °F 32.1 °F 25.0 °F 64% 30.25 in 10.0 mi WNW 4.6 mph - N/A   Overcast
8:53 AM 35.1 °F 28.6 °F 25.0 °F 67% 30.25 in 10.0 mi NW 8.1 mph - N/A   Scattered Clouds
9:53 AM 34.0 °F 28.8 °F 25.0 °F 70% 30.25 in 10.0 mi NW 5.8 mph - N/A   Scattered Clouds
10:53 AM 37.0 °F 31.6 °F 25.0 °F 62% 30.26 in 10.0 mi NW 6.9 mph - N/A   Scattered Clouds
11:53 AM 41.0 °F 38.0 °F 26.1 °F 55% 30.26 in 10.0 mi WNW 4.6 mph - N/A   Scattered Clouds
12:53 PM 42.1 °F 37.1 °F 24.1 °F 49% 30.27 in 10.0 mi West 8.1 mph - N/A   Partly Cloudy
1:53 PM 43.0 °F 38.2 °F 24.1 °F 47% 30.27 in 10.0 mi West 8.1 mph - N/A   Partly Cloudy
2:53 PM 43.0 °F 37.7 °F 21.9 °F 43% 30.27 in 10.0 mi West 9.2 mph - N/A   Partly Cloudy
3:53 PM 43.0 °F 38.2 °F 23.0 °F 45% 30.26 in 10.0 mi West 8.1 mph - N/A   Clear
4:53 PM 42.1 °F 37.7 °F 23.0 °F 47% 30.27 in 10.0 mi West 6.9 mph - N/A   Partly Cloudy
5:53 PM 37.9 °F - 23.0 °F 55% 30.27 in 10.0 mi Calm Calm - N/A   Scattered Clouds
6:53 PM 34.0 °F 29.8 °F 23.0 °F 64% 30.29 in 10.0 mi West 4.6 mph - N/A   Scattered Clouds
7:53 PM 30.9 °F 25.2 °F 23.0 °F 72% 30.30 in 10.0 mi WNW 5.8 mph - N/A   Scattered Clouds
8:53 PM 30.9 °F 25.2 °F 24.1 °F 76% 30.32 in 10.0 mi West 5.8 mph - N/A   Mostly Cloudy
9:53 PM 33.1 °F 26.9 °F 25.0 °F 72% 30.34 in 10.0 mi West 6.9 mph - N/A   Mostly Cloudy
10:53 PM 34.0 °F 28.8 °F 26.1 °F 73% 30.34 in 10.0 mi West 5.8 mph - N/A   Mostly Cloudy
11:53 PM 35.1 °F 30.1 °F 26.1 °F 70% 30.34 in 10.0 mi WNW 5.8 mph - N/A   Overcast